User: anonymous
Location: Niverville
(49.6028°N, 97.0419°W)
Time: 16:55:47
(UTC-05:00)
Language:

Cosmos 2237 Rocket - Orbit

View from above orbital plane
View from above orbital plane
View from above satellite
View from above satellite

Ground track
Ground track

The orbit data is extracted from the following two-line orbital elements,

1 22566U 93016B   14273.46363088  .00000337  00000-0  19919-3 0  1701
2 22566 071.0102 346.3783 0011059 211.7688 148.2769 14.14852735111131
Epoch (UTC): 30 September 2014 11:07:37
Eccentricity: 0.0011059
inclination: 71.0102°
perigee height: 835 km
apogee height: 851 km
right ascension of ascending node: 346.3783°
argument of perigee: 211.7688°
revolutions per day: 14.14852735
mean anomaly at epoch: 148.2769°
orbit number at epoch: 11113

The dashed part of the orbit path shows where the satellite is in the earth's shadow,  

DLR